Simultaneous Nadir Overpasses (SNOs) Predictions

Prediction of SNOs between AURA and NPP Satellite Orbit:

Table of predicted SNOs for the next 14.0 days since TLE Epoch: 11/25/2017
Index Date (AURA) Time (AURA) Lat,Lon (AURA) SZA (AURA ) Date (NPP) Time (NPP) Lat,Lon (NPP) SZA (NPP ) Distance(km) Time Diff (sec)
1 11/27/2017 10:35:33 -79.47, 97.80 67.31 11/27/2017 10:34:23 -79.47, 97.85 67.26 1.12 70
2 11/27/2017 11:24:54 79.65, -93.29 112.46 11/27/2017 11:25:02 79.64, -93.40 112.48 2.39 8
3 11/30/2017 02:51:59 -79.58,-145.58 66.96 11/30/2017 02:51:14 -79.59,-145.46 66.95 2.58 45
4 11/30/2017 03:41:20 79.75, 23.35 112.81 11/30/2017 03:41:53 79.75, 23.30 112.79 1.06 33
5 12/02/2017 19:08:27 -79.60, -29.53 66.55 12/02/2017 19:08:08 -79.60, -29.60 66.52 1.55 19
6 12/02/2017 19:57:46 79.85, 139.96 113.12 12/02/2017 19:58:44 79.85, 140.01 113.07 1.05 58
7 12/05/2017 10:35:32 79.42, -82.57 114.10 12/05/2017 10:34:21 79.41, -82.65 114.17 1.72 71
8 12/05/2017 11:24:51 -79.73, 87.29 66.32 12/05/2017 11:24:57 -79.73, 87.36 66.34 1.47 6
9 12/08/2017 02:51:56 79.58, 34.44 114.24 12/08/2017 02:51:10 79.58, 34.53 114.25 1.77 46




NCC Satellite Simultaneous Nadir Overpasses (SNOs) Prediction Service
